RH
12 11 20 31 42 46 46 52 82 96 98 99 99 100 98 98 97 98 92 95 94 94 94 95 96 94 95 95 96 97 95 97 96 97 99 98 93 82 80 82 85 86 88
12 12 25 40 45 51 59 67 64 64 75 88 97 97 97 97 92 93 96 95 96 96 95 95 96 95 95 97 96 93 95 97 95 94 96 99 99 95 82 80 79 84 83
13 31 42 53 75 76 72 69 74 78 76 65 70 97 98 99 99 99 97 96 97 97 94 94 96 95 93 96 96 94 92 95 97 92 94 98 95 93 88 80 80 84 85
22 34 43 80 73 75 69 65 64 69 83 87 74 90 97 96 97 94 95 95 95 96 97 95 95 95 94 95 95 94 92 91 97 95 79 80 80 86 96 83 80 81 82
32 36 56 62 65 68 74 66 65 65 76 87 91 95 93 96 98 98 95 95 95 91 96 97 96 96 95 94 95 96 94 91 90 90 89 78 82 62 73 84 93 80 77
37 46 55 61 71 71 67 65 66 78 83 86 90 91 93 95 99 99 98 98 98 95 95 97 96 95 96 97 96 95 94 95 91 89 85 80 75 75 67 71 77 80 78
36 52 61 63 66 66 65 61 64 72 81 85 91 92 92 94 96 98 98 97 98 99 98 97 98 98 97 96 95 95 96 94 94 91 89 84 73 66 61 63 74 83 88
39 55 56 59 65 66 64 65 67 72 75 83 89 92 91 95 94 96 98 94 93 93 93 97 97 96 97 97 96 96 95 94 95 92 90 90 83 84 69 63 68 78 93
48 47 50 59 64 66 69 68 67 75 79 84 88 85 91 90 94 93 97 96 92 90 94 94 96 97 97 97 97 96 96 96 95 94 93 91 90 91 85 64 62 65 82
56 56 52 63 63 66 70 71 70 75 78 79 84 86 88 88 89 93 95 98 96 95 95 96 95 96 97 96 96 95 94 95 96 96 94 92 92 94 92 84 76 62 64
71 63 49 59 62 74 75 76 75 76 84 84 82 87 91 89 92 94 96 96 96 97 96 96 97 98 98 98 97 97 97 98 97 97 97 96 91 94 94 86 78 75 68
62 68 66 63 71 73 72 74 76 78 81 82 83 86 88 89 87 87 88 94 96 97 95 94 95 96 98 98 98 98 98 98 97 95 96 96 96 96 92 91 86 84 78
63 51 70 68 71 73 77 77 76 80 80 84 89 88 88 87 90 86 86 88 93 94 97 96 95 95 96 96 96 94 94 95 94 95 97 96 94 97 96 95 94 90 91
55 66 66 68 73 72 74 75 77 80 81 83 84 86 88 86 89 85 84 88 89 93 97 96 95 94 95 94 94 96 96 94 95 96 95 94 97 95 94 97 96 96 95
65 65 67 73 70 71 73 74 76 77 79 80 81 82 80 81 83 84 84 82 87 90 94 97 95 94 94 95 94 94 96 97 97 98 95 94 96 99 98 94 98 97 96
63 62 62 63 66 67 71 72 77 80 78 77 78 77 78 79 81 83 85 82 86 88 96 98 97 97 96 100 100 99 98 98 98 98 98 97 99 99 100 100 100 95 95
68 62 63 67 66 72 67 75 77 75 76 78 76 75 77 80 83 81 84 88 88 91 92 98 97 98 98 100 100 100 98 98 98 98 100 100 100 100 100 100 100 99 94
67 61 59 66 69 69 70 71 71 72 78 76 76 76 78 80 80 83 84 88 90 94 97 99 99 99 100 100 100 100 100 99 100 100 100 100 100 100 100 100 100 100 100
59 59 58 64 66 70 70 71 73 73 74 75 78 78 81 82 82 87 89 89 93 94 98 99 99 99 99 99 99 99 99 100 100 100 100 100 100 99 99 100 100 99 99
61 64 62 63 68 69 71 73 77 77 78 79 81 81 82 84 87 90 92 91 94 98 99 99 99 99 99 98 98 98 98 98 98 99 100 99 100 99 98 100 98 97 98
66 64 65 69 70 68 72 79 79 82 81 81 82 83 80 85 88 90 92 95 98 99 99 99 99 99 98 99 96 96 98 98 98 98 98 99 98 98 98 94 96 94 95
70 66 71 72 68 70 76 82 84 79 82 84 86 83 85 84 84 92 95 98 99 99 99 99 99 99 99 96 95 93 93 93 96 98 98 97 95 94 94 94 94 94 93
72 67 67 69 69 70 79 88 80 81 84 86 88 88 86 89 89 96 97 98 99 99 99 99 98 98 98 98 95 93 93 93 96 94 94 92 91 91 91 92 93 94 93
70 74 72 75 78 77 78 86 82 82 86 92 92 94 95 93 94 93 97 98 100 100 100 99 99 99 98 98 96 96 94 92 93 93 92 90 90 89 90 90 89 89 88
78 83 84 81 82 81 83 84 83 84 87 94 94 95 95 96 96 94 97 98 97 99 99 98 97 98 98 98 93 94 94 93 91 91 91 90 87 83 79 77 80 82 78
85 82 84 84 86 87 87 88 88 88 91 92 94 96 96 95 96 97 93 86 94 97 95 95 93 98 97 96 94 91 90 88 86 88 90 90 89 89 87 89 90 88 84
Wind_Speed
10 14 13 8 9 8 11 9 10 7 7 4 5 3 6 6 5 6 9 8 11 13 12 8 10 11 12 12 10 5 9 5 5 5 2 3 2 5 6 7 8 8 8
10 10 4 2 7 11 12 10 9 9 6 3 3 4 4 5 8 7 6 7 9 12 12 12 10 12 10 11 12 12 6 3 8 5 5 4 4 2 4 6 9 10 8
9 2 6 4 7 7 8 10 9 9 6 4 3 3 3 3 3 4 5 7 8 10 13 14 12 13 11 12 13 12 13 9 8 9 5 4 5 5 5 10 9 10 8
3 10 10 1 8 5 7 8 8 8 6 6 3 5 5 8 7 9 8 8 9 10 12 13 13 14 10 12 13 12 13 11 10 8 9 3 5 7 5 5 9 9 10
11 11 5 9 8 7 7 7 8 9 6 7 6 5 4 1 1 2 8 10 9 11 10 13 13 13 11 12 14 13 12 10 10 10 10 9 3 11 6 9 6 5 8
8 14 16 11 7 5 7 8 11 12 11 7 6 6 5 1 2 3 6 6 5 6 9 11 12 11 11 12 11 13 14 12 9 10 11 13 10 10 9 8 12 12 9
13 17 17 13 9 7 8 10 13 13 7 8 8 7 5 3 6 5 6 6 4 3 6 10 11 10 11 11 11 12 12 12 12 13 11 10 11 7 10 8 10 10 3
15 19 17 12 12 9 9 12 13 8 7 7 8 6 5 3 3 5 4 5 5 7 10 11 11 12 12 11 11 9 10 12 11 13 12 10 11 7 8 11 13 10 3
13 14 12 14 13 13 9 9 11 10 8 7 6 5 5 7 4 6 5 5 8 7 10 12 12 12 13 12 13 10 12 11 12 13 13 12 10 10 10 11 11 13 10
9 4 10 11 10 11 9 8 9 13 7 8 4 3 4 6 7 6 5 5 6 7 9 11 12 12 13 13 13 11 11 13 10 10 14 14 11 12 10 11 12 11 11
16 21 6 12 11 10 8 7 14 11 7 5 6 6 5 6 6 6 6 6 5 9 9 11 11 11 11 12 12 11 10 12 11 11 12 13 17 15 13 11 11 10 8
7 9 16 13 12 8 9 13 13 11 7 5 5 6 6 7 9 9 10 8 6 6 10 11 11 10 10 10 10 10 9 11 12 12 11 12 11 16 16 11 14 13 8
9 7 13 11 9 11 15 13 10 5 5 6 6 7 8 9 9 11 11 11 9 6 10 11 11 11 11 11 10 10 10 10 10 10 11 12 14 13 11 13 11 10 7
9 10 13 12 13 15 13 11 10 7 7 6 8 8 8 9 9 11 13 12 11 10 10 12 12 12 10 10 10 10 11 10 10 10 12 12 11 13 18 12 13 11 12
16 15 14 10 11 12 10 9 8 8 8 9 9 10 11 11 10 11 12 14 11 12 10 13 13 11 10 9 11 11 11 10 10 8 10 11 12 13 11 11 10 14 13
14 16 14 13 13 12 10 11 10 9 10 10 9 10 11 11 12 12 13 14 12 14 11 13 16 15 10 13 15 13 11 11 10 10 8 7 11 13 17 13 18 17 16
13 13 11 9 9 8 9 9 10 12 12 10 10 11 11 12 12 13 13 13 15 13 16 12 16 15 9 14 16 15 8 8 9 8 6 5 4 7 5 14 21 21 24
13 13 11 9 8 7 9 10 12 13 11 11 12 12 12 13 13 13 15 14 13 13 14 8 6 9 5 8 12 11 6 6 4 3 2 4 2 4 12 10 9 10 9
13 12 13 11 12 14 14 13 13 12 11 13 13 13 13 14 14 14 13 13 13 13 8 6 8 8 6 10 14 12 8 7 6 5 4 4 5 6 15 15 14 12 11
13 14 14 12 12 13 12 11 12 12 14 15 15 14 13 13 13 14 13 10 12 12 3 4 5 9 9 10 12 13 8 8 6 6 6 9 9 12 7 12 18 17 12
12 13 12 12 13 14 14 13 13 13 15 15 15 15 15 13 12 12 11 11 11 5 2 4 6 5 8 10 12 14 9 9 8 6 6 5 14 16 13 8 10 18 16
13 13 12 11 12 13 15 16 15 15 15 15 15 15 14 10 9 11 9 10 3 1 2 2 3 2 5 12 13 15 16 15 11 9 8 10 21 24 26 19 24 29 20
12 12 13 13 12 12 11 12 16 16 15 14 14 13 12 9 8 9 8 7 3 2 2 1 2 3 6 8 21 22 23 22 13 9 19 28 30 31 23 26 23 16 11
15 14 15 15 15 14 13 11 13 13 12 12 12 9 9 10 8 7 8 6 4 2 2 3 3 4 3 9 9 12 15 25 20 21 13 14 16 18 16 13 13 10 10
11 11 9 10 11 11 10 10 12 13 12 11 9 7 6 8 7 7 8 7 6 5 4 3 4 5 3 1 10 17 15 14 15 18 12 11 10 11 11 11 11 11 11
8 9 9 10 11 11 12 11 11 12 11 10 8 7 6 6 6 6 6 17 14 6 12 12 10 6 12 9 12 23 29 32 27 12 12 12 10 11 11 11 11 10 12
Wind_Direction
287 303 292 153 132 120 110 115 131 155 148 146 151 154 188 195 192 201 196 174 187 190 188 192 181 175 177 180 180 161 172 155 149 123 161 182 153 174 192 180 173 171 173
290 307 41 248 142 140 126 121 121 135 154 139 155 154 163 194 202 199 192 190 190 186 178 180 191 179 176 166 175 177 173 150 172 167 139 189 188 207 189 197 190 177 173
270 92 48 25 61 91 113 115 118 117 123 180 114 74 65 53 158 189 209 202 187 184 185 180 182 180 178 172 175 182 179 179 185 183 156 148 202 152 196 197 197 176 178
252 150 131 123 119 123 109 99 100 101 94 105 147 174 188 192 201 198 200 199 209 198 179 181 181 180 182 182 184 183 188 179 187 184 219 192 149 170 152 202 208 179 179
174 142 94 142 152 124 95 91 80 57 77 88 88 133 169 206 355 173 181 200 209 203 183 173 182 187 186 186 181 178 192 195 183 188 194 217 205 197 164 173 185 191 194
212 150 137 144 130 112 101 78 67 48 46 60 59 50 29 278 167 173 201 205 208 200 182 178 182 182 179 177 181 184 192 191 197 196 199 197 199 196 187 173 180 189 187
196 150 148 144 127 123 107 95 78 65 53 47 34 17 0 314 222 215 215 205 187 189 191 180 185 186 183 181 182 188 194 198 201 194 202 203 209 202 203 183 170 174 134
166 151 147 135 129 124 102 95 98 92 70 55 47 17 343 293 266 207 237 226 208 212 194 188 188 187 180 183 184 191 196 202 200 205 206 203 210 199 200 191 170 167 147
137 132 131 139 142 122 125 126 114 94 69 53 45 27 354 338 317 277 228 234 225 213 194 196 191 185 182 187 184 195 198 207 206 208 207 212 209 206 199 205 186 174 170
34 83 131 129 117 130 124 102 96 83 66 51 31 19 356 343 326 309 286 251 241 201 192 193 196 188 187 196 196 202 204 203 207 212 217 215 211 198 192 195 189 191 184
26 4 292 139 105 75 90 99 73 68 56 36 1 355 351 349 333 326 287 259 248 212 196 192 188 180 190 195 195 199 197 203 211 213 221 222 224 209 183 191 186 183 188
12 356 1 67 81 104 89 65 60 51 25 0 1 358 351 355 355 342 332 287 267 245 204 199 183 180 178 178 187 197 200 208 215 227 231 227 217 200 189 184 183 185 185
333 32 49 35 51 63 61 56 50 35 352 9 4 5 357 357 346 339 322 316 288 254 224 201 191 188 186 183 194 201 213 213 220 222 218 225 218 208 194 182 176 179 148
116 70 61 39 34 41 40 35 24 360 348 9 14 3 355 349 346 331 323 317 310 265 229 203 204 191 181 188 189 203 210 212 220 219 218 218 213 205 189 173 181 169 147
28 36 43 35 35 33 24 15 5 348 353 19 14 1 350 349 337 327 320 318 316 293 239 214 199 197 185 185 185 204 210 212 215 212 214 216 208 198 199 192 169 159 147
15 21 24 22 23 16 9 1 350 352 5 8 2 357 346 342 332 326 321 317 308 313 250 219 200 190 188 183 190 193 202 205 209 216 210 204 206 204 195 189 157 155 158
6 14 15 22 24 21 6 352 355 359 358 0 0 349 340 335 329 324 319 316 314 309 289 230 214 183 187 171 181 193 196 198 207 208 195 197 214 195 147 186 158 156 161
1 7 10 26 31 23 9 359 6 359 353 353 347 341 334 329 324 319 319 317 312 307 291 222 175 132 124 164 178 164 121 103 85 67 83 155 146 155 138 102 105 117 119
17 6 6 17 16 11 2 2 0 349 346 349 339 331 325 322 320 313 313 310 304 306 289 275 155 143 141 117 131 123 111 100 81 69 73 111 97 96 152 129 117 96 87
14 1 358 2 12 4 355 355 352 345 347 340 330 320 314 315 310 305 306 302 294 289 304 350 283 127 123 131 131 125 125 113 104 79 73 96 107 99 141 150 136 119 119
11 3 1 0 357 355 350 354 347 345 335 328 323 322 315 306 301 304 306 302 289 275 80 68 316 85 126 130 137 133 129 128 115 100 87 84 104 100 96 124 128 123 121
2 3 2 357 351 351 350 346 338 333 329 327 319 311 299 308 317 311 310 314 314 156 52 92 81 51 108 115 126 121 119 123 117 112 102 97 101 102 99 92 108 109 104
356 358 354 349 344 347 347 339 329 325 326 321 313 305 310 327 331 326 332 318 281 181 142 125 103 294 121 113 120 117 112 109 105 111 114 108 102 99 92 100 98 91 98
354 353 353 346 339 340 335 323 309 314 309 304 304 315 327 341 337 347 353 320 278 213 179 161 138 123 251 127 132 119 112 108 108 111 104 101 98 94 98 91 82 85 91
342 337 337 327 320 312 304 315 332 333 331 323 320 327 335 347 347 360 359 342 313 256 184 157 132 134 234 234 162 139 135 130 125 121 114 108 106 103 98 93 93 99 103
329 332 328 323 325 324 328 331 337 334 335 334 337 343 347 357 2 353 360 14 16 25 111 120 122 90 103 140 149 133 128 130 132 119 120 114 111 109 110 107 103 97 100